Location: Newark
(7.0858°N, 171.3717°E)
Time: 04:58:59
(UTC+00:00)

Courier 1B Rocket - Pass Details

Date: 27 November 2020
Orbit: 920 x 1202 km, 28.2° (Epoch: 20 January)

Event Time Altitude Azimuth Distance (km) Brightness Sun altitude
Rises 14:22:15 0° 226° (SW) 3,924 - -57.8°
Reaches altitude 10° 14:25:06 10° 220° (SW) 3,004 - -57.1°
Maximum altitude 14:32:13 47° 149° (SSE) 1,517 - -55.6°
Drops below altitude 10° 14:39:37 10° 78° (ENE) 3,123 - -53.9°
Exits shadow 14:40:01 - 77° (ENE) 3,249 8.0 -53.9°
Sets 14:42:37 0° 72° (ENE) 4,091 8.6 -53.3°
